Location: Gilevgi
(36.8751°N, 30.0581°E)
Time: 09:22:25
(UTC+00:00)

CZ-2D R/B - Pass Details

Date: 16 March 2026
Orbit: 524 x 594 km, 98.0° (Epoch: 20 April)

Event Time Altitude Azimuth Distance (km) Brightness Sun altitude
Rises 17:19:59 0° 190° (S) 2,801 6.9 -15.2°
Reaches altitude 10° 17:22:19 10° 201° (SSW) 1,913 6.2 -15.6°
Maximum altitude 17:25:59 30° 263° (W) 1,079 5.5 -16.4°
Drops below altitude 10° 17:29:42 10° 325° (NW) 1,935 6.8 -17.1°
Sets 17:32:06 0° 336° (NNW) 2,841 7.5 -17.6°
